Wind_Speed
43 43 43 43 42 42 41 41 41 41 40 41 40 39 38 38 38 37 36 36 35 34 33 33 33 33 33 33 33 33 33 33 33 33 33 33 34 34 34 35 35 36 36
44 44 44 43 43 42 42 42 42 42 41 41 41 41 40 39 39 38 38 37 36 36 35 34 33 33 34 34 34 35 35 35 34 34 34 34 35 36 36 36 36 37 37
45 44 43 43 43 42 42 42 42 42 42 42 42 42 42 41 40 39 38 38 37 36 35 35 34 34 35 35 36 36 35 36 36 36 36 36 36 36 36 37 37 38 38
44 44 44 43 43 43 43 43 43 42 42 42 43 42 42 42 41 41 40 39 38 37 37 37 36 36 36 36 36 36 36 36 36 36 36 37 37 37 36 36 37 38 39
44 43 43 43 43 43 43 43 43 43 43 42 42 42 42 42 42 41 41 41 40 40 39 39 38 38 38 38 37 37 37 37 37 37 38 38 38 39 38 37 38 39 39
43 43 44 44 44 43 43 43 43 43 42 42 42 41 42 42 42 42 42 42 41 41 40 40 40 39 40 40 40 39 39 38 38 38 39 39 39 39 40 40 40 40 40
44 43 43 44 44 44 44 43 43 43 42 43 42 42 42 42 43 43 43 43 42 41 41 40 41 41 41 41 41 41 40 40 39 39 39 40 40 40 41 42 42 42 41
44 43 43 43 44 44 44 44 44 43 43 43 43 43 43 42 43 43 43 43 43 43 42 42 42 42 42 42 42 42 41 41 41 41 41 41 41 41 42 43 43 43 43
44 44 44 44 44 45 45 45 45 44 44 44 43 43 43 43 43 43 43 43 44 44 43 43 43 43 43 43 43 43 42 42 42 42 42 42 42 42 43 44 44 45 45
43 43 43 43 44 44 45 45 45 45 45 45 45 45 44 44 44 43 44 44 44 44 44 44 44 44 44 44 44 44 44 43 43 43 43 44 44 44 45 45 45 46 46
43 43 43 43 44 44 45 45 46 45 46 46 46 45 45 44 44 44 44 45 45 44 44 44 45 45 45 45 45 44 44 44 44 44 45 45 46 46 46 47 47 47 47
43 43 43 43 44 44 45 46 46 45 45 46 46 46 45 45 45 45 45 45 45 45 45 45 45 46 46 46 45 45 45 45 46 46 46 47 47 47 48 48 47 48 49
42 42 42 43 43 44 45 46 46 46 45 45 45 46 45 45 45 45 45 45 45 45 46 46 46 46 47 46 46 46 46 46 46 47 47 47 47 48 48 48 48 49 50
41 42 42 43 43 44 45 46 46 46 45 45 45 45 45 45 45 46 46 45 45 45 44 45 46 46 46 46 46 46 46 46 47 47 48 48 48 48 49 49 49 50 50
41 41 42 42 43 44 44 45 46 46 46 46 46 46 46 46 46 47 46 45 45 45 44 45 45 45 45 45 46 46 46 47 47 48 48 48 48 48 49 49 50 50 50
40 41 41 41 42 43 44 44 45 45 45 45 45 46 46 46 46 46 46 45 45 45 45 44 45 45 45 45 46 46 47 47 47 48 48 48 49 49 49 50 50 50 49
40 41 41 41 42 43 43 44 44 45 46 45 45 45 46 46 47 46 46 45 45 45 45 46 46 45 45 46 46 46 47 47 47 47 47 48 48 49 49 50 50 49 49
40 41 41 42 42 43 43 44 45 45 45 45 46 45 45 45 46 46 46 46 46 46 46 47 47 47 47 46 46 46 47 47 47 47 47 48 48 49 49 50 49 48 48
39 40 40 41 42 43 43 44 44 45 45 45 45 46 45 45 45 45 45 46 46 47 47 47 47 47 47 47 47 47 47 47 47 47 48 48 49 49 50 49 48 47 47
38 39 40 40 41 42 43 43 44 44 45 45 45 46 46 46 46 45 45 46 46 46 47 47 47 46 46 46 46 46 47 47 47 47 48 48 48 48 48 48 47 46 45
36 37 38 39 40 41 42 43 43 44 45 45 45 45 45 46 45 45 45 46 46 46 47 47 46 46 46 46 46 46 46 46 46 46 46 46 47 47 47 46 45 44 44
34 35 36 38 39 40 41 41 41 42 43 44 44 44 44 44 44 44 44 44 45 45 46 45 45 45 46 46 46 46 46 46 46 45 45 46 46 46 46 45 44 44 44
32 33 34 35 36 38 39 40 41 41 42 43 43 43 43 43 43 43 43 44 43 43 43 43 43 44 44 45 45 45 46 46 46 46 46 46 46 45 44 44 43 43 42
31 32 32 33 34 35 36 37 39 40 41 41 42 42 42 42 42 42 42 42 41 41 41 41 41 42 42 43 43 44 44 45 45 45 45 44 44 44 44 43 42 42 41
29 30 31 32 33 34 34 35 36 37 38 38 39 40 40 41 40 40 40 40 39 39 39 39 39 40 40 41 41 42 43 43 43 43 43 43 43 43 42 42 41 41 40
28 29 29 30 31 32 32 33 34 34 35 36 36 36 37 37 37 38 38 38 38 38 39 39 39 39 39 39 39 40 40 41 41 41 41 41 41 41 40 39 39 38 38
Wind_Direction
235 236 236 237 238 240 241 243 243 244 245 247 247 249 250 251 253 255 257 259 261 262 264 265 267 269 271 273 275 277 278 280 281 282 283 284 287 288 289 289 290 291 292
235 236 237 237 238 240 242 243 245 246 246 247 247 248 250 253 254 257 259 260 261 264 265 266 267 269 271 273 275 276 278 279 280 281 283 284 286 288 288 289 290 290 291
235 236 237 238 239 240 242 243 245 246 247 248 248 248 250 252 254 256 258 260 261 263 264 265 267 269 271 273 275 276 277 278 279 281 282 284 285 287 288 288 289 290 291
236 236 238 239 240 241 242 244 245 246 248 249 249 249 250 251 253 255 257 259 261 262 263 264 266 269 271 273 274 275 276 278 279 280 282 283 285 286 286 286 288 289 291
236 236 237 239 240 241 242 243 245 246 247 248 249 249 250 251 253 255 256 258 260 262 264 265 266 269 271 272 274 274 275 277 278 280 281 283 284 285 286 286 287 289 291
236 237 237 238 240 241 242 243 245 246 247 248 249 250 251 251 253 254 257 258 260 261 264 265 267 269 271 273 273 274 275 277 278 279 281 283 285 285 286 287 289 289 291
236 237 238 239 240 241 242 243 244 246 247 248 249 250 251 252 253 255 257 258 259 261 263 264 267 269 270 272 273 273 275 276 277 279 281 283 284 285 286 287 289 290 291
236 237 238 239 240 242 242 243 244 246 247 248 249 250 251 252 254 256 256 257 259 260 262 264 266 268 270 271 272 273 274 276 277 278 280 282 284 285 286 288 289 290 291
236 238 239 240 241 242 242 243 244 246 247 248 249 250 250 252 254 255 256 257 259 260 262 263 265 267 269 271 272 273 274 275 276 278 280 282 283 284 286 288 289 290 290
239 239 240 241 242 243 243 243 244 245 247 248 249 250 251 253 254 255 255 257 259 261 262 262 264 266 268 270 272 273 274 275 276 278 280 281 283 285 286 287 288 289 291
240 241 241 241 242 243 244 244 244 246 247 248 249 251 252 253 254 256 257 258 260 261 262 263 264 266 267 269 271 272 273 275 276 278 279 281 283 284 286 288 289 290 291
240 241 242 242 243 243 243 244 244 246 247 248 249 251 252 252 254 255 257 259 260 261 261 263 264 266 267 269 270 271 273 275 276 278 279 281 283 284 286 288 289 291 292
241 242 243 243 243 244 244 244 245 246 248 248 249 250 252 253 254 255 257 259 260 262 262 263 264 266 268 269 269 271 272 275 277 278 279 281 283 285 286 288 290 291 292
241 242 243 243 243 244 245 245 246 248 248 249 250 252 252 254 255 256 257 258 260 261 263 264 265 267 269 269 269 271 272 274 276 278 279 281 283 285 286 288 290 291 292
242 242 243 244 244 245 245 246 246 248 249 250 251 252 253 255 256 256 257 258 260 261 263 265 266 267 267 268 270 272 273 275 277 278 279 281 283 284 286 288 289 291 292
242 242 243 244 245 245 246 246 247 248 250 251 252 253 254 255 256 257 258 258 260 262 262 264 265 266 267 268 270 272 273 275 277 278 280 281 282 284 286 288 289 290 291
243 243 244 245 245 245 246 247 248 249 250 251 253 253 254 255 256 258 259 259 260 262 263 263 264 266 268 269 271 272 273 275 277 279 280 281 283 284 286 287 288 289 289
244 244 245 245 245 246 247 247 248 250 251 252 253 254 255 256 257 258 259 260 261 262 263 264 265 267 268 270 271 272 274 275 277 278 280 281 283 284 286 287 287 288 288
244 245 246 247 247 248 248 249 249 250 251 252 253 254 256 257 257 258 259 260 261 262 263 264 265 266 268 269 271 272 274 275 276 278 279 281 283 284 285 286 286 287 287
246 247 248 248 249 249 250 251 251 251 251 252 253 254 255 257 258 258 259 261 262 263 263 264 265 265 267 269 270 272 273 275 276 278 279 281 283 283 285 285 286 286 286
248 249 249 249 250 250 251 251 252 252 252 252 253 254 255 256 257 258 259 261 262 263 264 264 265 266 267 268 270 271 272 273 275 277 279 281 283 284 284 285 285 285 286
251 251 251 251 251 251 251 252 252 252 253 253 254 254 255 256 256 258 259 261 262 262 263 264 265 266 267 268 270 271 272 274 275 277 279 280 282 283 283 284 284 284 285
252 252 253 252 252 252 252 252 253 253 254 254 254 254 255 255 257 257 259 260 262 262 263 263 264 266 267 268 269 271 272 274 277 278 279 280 281 282 283 283 283 283 285
253 253 253 253 253 253 253 254 254 255 255 256 256 256 255 255 256 257 259 260 261 262 262 263 264 266 268 269 271 272 273 275 277 278 279 280 281 281 282 283 283 284 285
253 253 253 254 254 255 255 255 255 255 256 256 256 256 256 256 257 258 259 260 261 262 262 263 264 266 268 270 271 272 274 275 276 277 278 279 280 281 281 282 282 283 284
256 255 254 255 254 254 254 254 254 255 255 255 255 256 257 256 257 258 259 260 261 262 263 264 265 267 269 271 272 273 274 275 275 277 278 279 280 280 280 281 282 283 284
Height
5764 5768 5773 5777 5780 5784 5787 5790 5793 5797 5799 5802 5804 5806 5808 5810 5812 5814 5815 5816 5817 5818 5819 5819 5819 5819 5819 5819 5818 5818 5817 5816 5815 5814 5812 5810 5808 5806 5804 5801 5798 5795 5792
5755 5760 5764 5768 5772 5776 5779 5782 5784 5788 5791 5793 5795 5798 5800 5802 5804 5806 5807 5808 5809 5810 5811 5812 5812 5812 5812 5812 5811 5810 5809 5808 5807 5806 5805 5803 5802 5799 5797 5794 5791 5788 5785
5746 5751 5755 5759 5763 5767 5770 5773 5775 5778 5781 5784 5786 5789 5791 5794 5796 5798 5799 5800 5801 5802 5803 5803 5804 5804 5804 5803 5803 5803 5802 5801 5800 5798 5797 5796 5794 5792 5790 5787 5783 5780 5777
5737 5742 5746 5750 5753 5757 5760 5763 5766 5769 5771 5774 5777 5779 5782 5784 5787 5788 5790 5791 5793 5794 5794 5795 5795 5796 5796 5795 5795 5794 5793 5793 5792 5790 5789 5787 5785 5784 5783 5780 5776 5772 5769
5728 5733 5737 5740 5743 5746 5750 5753 5756 5759 5762 5765 5767 5770 5772 5775 5777 5779 5781 5783 5784 5785 5786 5786 5787 5787 5787 5787 5786 5786 5785 5784 5783 5782 5780 5778 5776 5774 5773 5772 5769 5765 5761
5719 5723 5727 5730 5733 5737 5740 5744 5747 5749 5752 5755 5758 5760 5763 5765 5767 5769 5772 5773 5775 5776 5777 5777 5778 5778 5778 5778 5777 5777 5776 5775 5774 5773 5771 5770 5768 5765 5763 5761 5759 5756 5753
5709 5713 5717 5721 5724 5728 5731 5734 5737 5740 5743 5745 5748 5751 5753 5755 5758 5760 5762 5763 5765 5766 5767 5768 5768 5768 5768 5768 5768 5768 5767 5766 5765 5764 5762 5760 5758 5756 5753 5751 5749 5747 5744
5699 5703 5707 5711 5714 5718 5721 5724 5727 5730 5733 5736 5739 5741 5744 5746 5748 5750 5751 5753 5755 5756 5757 5758 5758 5758 5759 5758 5758 5758 5757 5757 5756 5754 5753 5751 5748 5746 5743 5741 5739 5736 5734
5689 5693 5697 5701 5704 5707 5711 5714 5718 5720 5723 5726 5729 5732 5734 5736 5738 5740 5742 5743 5745 5746 5747 5747 5748 5748 5748 5748 5748 5748 5747 5747 5746 5745 5743 5741 5739 5736 5733 5731 5728 5725 5723
5679 5683 5687 5691 5694 5697 5701 5704 5707 5710 5713 5716 5719 5721 5724 5726 5727 5729 5731 5733 5734 5736 5736 5737 5738 5738 5738 5738 5738 5738 5737 5737 5736 5734 5733 5731 5728 5726 5723 5720 5717 5713 5710
5669 5673 5677 5680 5684 5687 5690 5693 5697 5700 5703 5706 5708 5711 5713 5715 5717 5719 5721 5722 5724 5725 5726 5726 5727 5727 5728 5727 5727 5727 5727 5726 5725 5724 5722 5720 5718 5716 5713 5710 5706 5703 5699
5659 5663 5667 5670 5673 5676 5680 5683 5686 5689 5692 5695 5697 5700 5702 5704 5706 5708 5710 5711 5713 5714 5715 5715 5716 5716 5716 5716 5716 5716 5716 5715 5714 5713 5711 5709 5707 5705 5702 5699 5695 5692 5687
5648 5652 5656 5659 5663 5666 5669 5672 5676 5679 5681 5684 5686 5689 5691 5693 5695 5697 5699 5700 5702 5703 5704 5704 5705 5705 5705 5705 5704 5704 5704 5704 5703 5702 5700 5698 5696 5694 5691 5687 5684 5680 5676
5638 5642 5645 5649 5652 5655 5658 5661 5665 5668 5670 5673 5676 5678 5680 5682 5684 5686 5688 5689 5690 5692 5692 5693 5693 5693 5693 5693 5693 5693 5693 5692 5691 5690 5688 5686 5684 5682 5679 5676 5672 5668 5664
5627 5631 5634 5638 5641 5644 5647 5650 5653 5656 5659 5662 5664 5667 5669 5671 5673 5674 5676 5677 5679 5680 5681 5681 5682 5682 5681 5681 5681 5681 5681 5681 5680 5678 5676 5674 5672 5670 5667 5664 5660 5656 5652
5617 5620 5624 5627 5630 5633 5636 5639 5642 5644 5647 5650 5653 5655 5657 5659 5661 5663 5664 5666 5667 5668 5669 5670 5670 5670 5670 5670 5670 5669 5669 5669 5668 5666 5665 5663 5660 5658 5655 5652 5648 5644 5641
5607 5610 5613 5616 5619 5622 5625 5627 5630 5633 5635 5638 5640 5643 5645 5647 5649 5651 5652 5654 5655 5656 5657 5658 5658 5658 5659 5658 5658 5657 5657 5656 5655 5654 5653 5650 5648 5645 5643 5640 5636 5632 5628
5596 5599 5602 5605 5608 5611 5613 5616 5619 5621 5624 5626 5628 5630 5633 5635 5637 5639 5640 5642 5643 5644 5645 5646 5646 5646 5647 5646 5646 5645 5645 5644 5643 5642 5640 5638 5636 5633 5630 5627 5624 5620 5617
5586 5588 5591 5594 5597 5599 5602 5604 5607 5609 5612 5614 5616 5618 5621 5623 5625 5627 5628 5629 5630 5632 5633 5633 5634 5634 5635 5634 5634 5633 5633 5632 5631 5629 5628 5626 5623 5621 5617 5615 5612 5609 5605
5576 5578 5581 5583 5585 5588 5590 5593 5595 5598 5600 5602 5604 5606 5608 5611 5612 5614 5616 5617 5618 5619 5619 5620 5621 5621 5622 5622 5621 5621 5620 5620 5619 5617 5615 5613 5610 5608 5604 5602 5599 5597 5594
5566 5568 5570 5572 5575 5577 5579 5581 5584 5586 5588 5590 5592 5594 5596 5598 5600 5602 5603 5604 5605 5606 5607 5608 5608 5609 5609 5609 5609 5608 5607 5607 5606 5605 5603 5601 5598 5595 5592 5590 5587 5585 5582
5556 5558 5560 5562 5564 5566 5568 5570 5572 5574 5576 5578 5580 5582 5584 5586 5588 5589 5590 5591 5592 5593 5594 5595 5596 5596 5596 5596 5596 5596 5595 5594 5593 5592 5590 5588 5585 5583 5581 5578 5576 5573 5570
5547 5548 5550 5552 5553 5555 5557 5559 5561 5562 5564 5566 5568 5570 5572 5574 5575 5577 5578 5579 5580 5580 5581 5582 5583 5584 5584 5584 5584 5583 5582 5581 5580 5579 5578 5575 5573 5571 5569 5566 5564 5561 5559
5538 5539 5540 5542 5543 5545 5546 5548 5550 5551 5553 5555 5556 5558 5560 5562 5563 5565 5566 5567 5568 5569 5569 5570 5571 5571 5572 5572 5571 5571 5570 5569 5568 5566 5565 5563 5561 5559 5557 5555 5552 5550 5548
5529 5530 5531 5533 5534 5535 5536 5537 5539 5540 5542 5544 5545 5547 5548 5550 5552 5553 5554 5555 5556 5557 5558 5559 5559 5560 5560 5560 5559 5558 5558 5557 5556 5554 5553 5551 5550 5548 5545 5543 5541 5539 5537
5521 5521 5522 5523 5524 5525 5526 5527 5529 5530 5532 5533 5534 5536 5537 5539 5540 5542 5543 5544 5545 5546 5547 5547 5548 5548 5548 5548 5547 5547 5546 5545 5544 5542 5541 5539 5538 5536 5534 5532 5530 5528 5526